SL-8 DEB

Satellite information

Favourite Embed

Satellite Type and Status

DEBRISIN ORBIT

Key statistics

Satellite SL-8 DEB at a glance.

Uptime

16612

Days in orbit

Revolutions

≈ 13.8

Per day

Orbit

LEO

Low Earth Orbit

Inclination

82.9

Latest

Satellite identification and parameters

Extended collection of information and parameters for SL-8 DEB.

Object identification

Identified? True

Debris? True

Object name: SL-8 DEB

International designator: 1980-022D

Object number (NORAD): 45514

Object ID (CCSDS): 45514

Country: COMMONWEALTH OF INDEPENDENT STATES (CIS)

Current information (Y/N): Y

RCS size: SMALL

Orbital parameters

Period: 104.313 minutes

Inclination: 82.9385 deg

SMA: 7340.397 km

Apoapsis: 984.63 km

Periapsis: 939.895 km

RAAN: 78.3475 deg

Eccentricy: 0.00304718

Argument of periapsis: 299.0034 deg

Mean anomaly: 60.8072 deg

Mean motion: 13.80458673 rev/day

Mean motion (dot): 0.0000064 rev/day2

B* drag term: 0.00059528258 1/REarth

Two-line elements (TLE)

Creation date: Sept. 8, 2025, 9:49 a.m.

Reference frame: TEME

Reference center: EARTH

Epoch: Sept. 8, 2025, 5:56 a.m. UTC

TLE line 0: 0 SL-8 DEB

TLE line 1: 1 45514U 80022D 25251.24748422 .00000640 00000-0 59528-3 0 9991

TLE line 2: 2 45514 82.9385 78.3475 0030472 299.0034 60.8072 13.80458673573411

Live tracking on map

Real-time ground track for satellite SL-8 DEB.

In-orbit conjunctions

A list of the most updated potential collisions computed for object SL-8 DEB.

Target Orbit TCA Probability of collision Miss distance Type
COSMOS 967 LEO 2024-11-11 06:01:57 0.0001406005 174.0 (m) PAYLOAD
SL-8 R/B LEO 2024-10-13 17:42:04 0.0001516767 245.0 (m) ROCKET BODY
SL-8 R/B LEO 2024-10-04 17:03:01 0.0001598944 117.0 (m) ROCKET BODY

Associated space launch

Civilian navigation satellite equivalent to the purely military Parus

SL-8 DEB was lifted into orbit during the mission ‘Kosmos-3M | Tsikada 6’, on board a Kosmos-3M space rocket.

The launch took place on March 17, 1980, 9:37 p.m. from 132/1 (132L).

For more information about the launch, click the button.

Launch to space Kosmos-3M | Tsikada 6
Kosmos-3M | Tsikada 6

Agency: N/A

Status: Launch Successful

Launch date: March 17, 1980, 9:37 p.m. UTC

Rocket: Kosmos-3M

Launch pad: 132/1 (132L)

Location: Plesetsk Cosmodrome, Russian Federation

...

Latest news about this satellite

There are no fresh news available about this satellite. Check back as we update our databases every day.


Newsletter sign-up

Weekly statistics, charts and insights to help you stay on top of the space industry.